Location: Unspecified
(51.3603°S, 0.0000°E)
Time: 02:40:58
(UTC+00:00)

ISS - Visible Passes

Search period start: 04 April 2026 00:00
Search period end: 14 April 2026 00:00
Orbit: 417 x 425 km, 51.6° (Epoch: 29 March)

Date Brightness Start Highest point End Pass type
(mag) Time Alt. Az. Time Alt. Az. Time Alt. Az.
4 Apr -1.7 04:30:25 17° N 04:30:25 17° N 04:31:39 10° NNE visible
11 Apr -1.3 18:56:02 10° NNE 18:56:22 11° NNE 18:56:22 11° NNE visible
12 Apr -1.4 19:43:17 10° NW 19:44:17 17° NNW 19:44:17 17° NNW visible
13 Apr -2.4 18:56:14 10° NNW 18:59:02 25° NNE 18:59:02 25° NNE visible
